Regional Weather Roundup
Issued by NWS

Home | Current Version | Previous Version | Graphics & Text | Print | Product List | Glossary Off
Versions: 1 2 3 4 5 6 7 8 9 10 11 12 13 14 15 16 17 18 19 20 21 22 23 24 25 26 27 28 29 30 31 32 33 34 35 36 37 38 39 40 41 42 43 44 45 46 47 48 49 50

000
ASUS43 KTOP 241059
RWRKS

WEATHER ROUNDUP FOR KANSAS
NATIONAL WEATHER SERVICE GOODLAND KS
600 AM CDT MON APR 24 2017

NOTE:  "FAIR" INDICATES FEW OR NO CLOUDS BELOW 12,000 FEET WITH NO
SIGNIFICANT WEATHER AND/OR OBSTRUCTIONS TO VISIBILITY.

KSZ001>006-013>018-027>032-041>047-241200-
NORTHWEST KANSAS

CITY           SKY/WX    TMP DP  RH WIND       PRES   REMARKS
GOODLAND       CLOUDY    50  39  66 S16       29.52F
HILL CITY      CLOUDY    53  37  54 S30G41    29.58F
RUSSELL        CLOUDY    53  35  50 S31G40    29.67F
$$

KSZ061>065-074>080-084>089-241200-
SOUTHWEST KANSAS

CITY           SKY/WX    TMP DP  RH WIND       PRES   REMARKS
DODGE CITY     CLOUDY    49  36  61 S23       29.71F
ELKHART          N/A    N/A N/A N/A MISG        N/A
GARDEN CITY    CLOUDY    50  34  54 S22G31    29.63F
$$

KSZ066>073-081>083-090>101-241200-
SOUTHEAST KANSAS

CITY           SKY/WX    TMP DP  RH WIND       PRES   REMARKS
CHANUTE        CLEAR     44  39  82 SE8       29.93F
COFFEYVILLE    CLEAR     39  38  96 SE3       29.95F
HUTCHINSON     CLOUDY    50  38  63 S14       29.80F
MEDICINE LODGE   N/A     47  38  71 SE9       29.82F
NEWTON         CLOUDY    48  39  71 S15       29.84F
PARSONS        CLEAR     42  39  89 VRB3      29.95F
WICHITA INTL   CLOUDY    46  40  79 S12       29.85F
WICHITA JABRA  CLEAR     49  39  68 S16       29.85F
WINFIELD       CLEAR     47  40  76 SE10      29.90F
$$

KSZ007>012-019>026-033>040-048>060-102>105-241200-
NORTHEAST KANSAS

CITY           SKY/WX    TMP DP  RH WIND       PRES   REMARKS
CONCORDIA      CLOUDY    49  38  65 S17G25    29.74F
EMPORIA        CLEAR     45  41  86 S10       29.89S
LAWRENCE       CLOUDY    44  40  85 E8        29.90F
MANHATTAN      CLOUDY    52  38  58 S14       29.83F
OLATHE IND     PTCLDY    45  38  76 S8        29.92F
OLATHE EXE     PTCLDY    45  38  76 S5        29.93S
SALINA         CLOUDY    53  38  56 S17G25    29.78F
TOPEKA BILLARD CLOUDY    50  39  66 S5        29.88F
TOPEKA FORBES  CLOUDY    51  39  63 S12       29.87F
$$



USA.gov is the U.S. government's official web portal to all federal, state and local government web resources and services.